Weather History for Little Rock AFB, AR

Change the Weather History Date:

Saturday, April 6, 2013

  Actual Average Record
Temperature  
Mean Temperature 58 °F -  
Max Temperature 75 °F 69 °F 87 °F (1978)
Min Temperature 41 °F 43 °F 29 °F (1971)
Degree Days  
Heating Degree Days 7    
Growing Degree Days 8 (Base 50)    
Moisture  
Dew Point 43 °F    
Average Humidity 57    
Maximum Humidity 97    
Minimum Humidity 31    
Precipitation  
Precipitation 0.00 in - - ()
Sea Level Pressure  
Sea Level Pressure 29.99 in    
Wind  
Wind Speed 6 mph (SSE)    
Max Wind Speed 16 mph    
Max Gust Speed 28 mph    
Visibility 10 miles    
Events      
Averages and records for this station are not official NWS values.
T = Trace of Precipitation, MM = Missing Value Source: NWS Daily Summary

Daily Weather History Graph

Daily Weather History Graph

Search for Another Location

Airport:

Trip Planner

Search our weather history database for the weather conditions in past years. The results will help you decide how hot, cold, wet, or windy it might be!

Date:

Astronomy

Apr. 06, 2013 Rise Set
Actual Time 6:48 AM CDT 7:34 PM CDT
Civil Twilight 6:22 AM CDT 7:59 PM CDT
Nautical Twilight 5:52 AM CDT 8:30 PM CDT
Astronomical Twilight 5:21 AM CDT 9:01 PM CDT
Moon 4:23 AM CDT (4/6) 4:10 PM CDT (4/6)
Length of Visible Light 13h 37m
Length of Day
12h 45m
Waning Crescent, 15% of the Moon is Illuminated
Apr 6
Waning Crescent
Apr 10
New
Apr 18
First Quarter
Apr 25
Full
May 2
Last Quarter

Hourly Weather History & Observations

Time (CDT) Temp. Windchill Dew Point Humidity Pressure Visibility Wind Dir Wind Speed Gust Speed Precip Events Conditions
12:58 AM 44.2 °F - 42.1 °F 92% 30.10 in 10.0 mi ENE 2.3 mph - N/A   Clear
1:59 AM 42.8 °F - 41.0 °F 93% 30.08 in 10.0 mi NE 2.3 mph - N/A   Clear
2:58 AM 43.7 °F - 42.6 °F 96% 30.07 in 10.0 mi Calm Calm - N/A   Clear
3:58 AM 42.6 °F - 41.5 °F 96% 30.05 in 10.0 mi Calm Calm - N/A   Clear
4:58 AM 42.1 °F 40.2 °F 40.6 °F 95% 30.05 in 10.0 mi ENE 3.5 mph - N/A   Clear
5:58 AM 41.7 °F 39.8 °F 41.0 °F 97% 30.04 in 10.0 mi SE 3.5 mph - N/A   Clear
6:58 AM 41.0 °F - 39.7 °F 95% 30.06 in 10.0 mi NE 1.2 mph - N/A   Clear
7:58 AM 45.7 °F 43.4 °F 43.5 °F 92% 30.08 in 10.0 mi South 4.6 mph - N/A   Clear
8:58 AM 54.0 °F - 43.0 °F 66% 30.08 in 10.0 mi South 6.9 mph - N/A   Clear
9:58 AM 60.3 °F - 43.7 °F 54% 30.07 in 10.0 mi South 8.1 mph 17.3 mph N/A   Clear
10:58 AM 63.5 °F - 43.0 °F 47% 30.07 in 10.0 mi South 13.8 mph 19.6 mph N/A   Clear
11:58 AM 66.0 °F - 43.7 °F 44% 30.05 in 10.0 mi South 11.5 mph 17.3 mph N/A   Scattered Clouds
12:58 PM 69.3 °F - 45.1 °F 42% 30.03 in 10.0 mi South 12.7 mph 17.3 mph N/A   Clear
1:19 PM 69.8 °F - 46.4 °F 43% 30.00 in 10.0 mi South 12.7 mph - N/A   Clear
1:58 PM 71.4 °F - 45.1 °F 39% 29.99 in 10.0 mi South 16.1 mph 20.7 mph N/A   Clear
1:59 PM 71.6 °F - 44.6 °F 38% 29.98 in 10.0 mi South 15.0 mph 20.7 mph N/A   Clear
2:58 PM 73.4 °F - 44.4 °F 35% 29.95 in 10.0 mi South 8.1 mph 21.9 mph N/A   Clear
3:58 PM 74.3 °F - 43.2 °F 33% 29.92 in 10.0 mi SSW 15.0 mph 23.0 mph N/A   Clear
4:16 PM 75.2 °F - 42.8 °F 31% 29.90 in 10.0 mi SSW 16.1 mph 27.6 mph N/A   Clear
4:58 PM 74.8 °F - 42.6 °F 31% 29.88 in 10.0 mi SSE 15.0 mph 19.6 mph N/A   Clear
5:03 PM 75.2 °F - 42.8 °F 31% 29.88 in 10.0 mi South 13.8 mph 20.7 mph N/A   Clear
5:58 PM 74.3 °F - 42.6 °F 32% 29.89 in 10.0 mi South 11.5 mph - N/A   Clear
6:58 PM 72.7 °F - 42.3 °F 33% 29.89 in 10.0 mi Variable 6.9 mph - N/A   Clear
7:58 PM 68.9 °F - 42.3 °F 38% 29.90 in 10.0 mi SSE 4.6 mph - N/A   Clear
8:58 PM 66.0 °F - 43.2 °F 43% 29.92 in 10.0 mi South 5.8 mph - N/A   Clear
9:58 PM 64.8 °F - 44.1 °F 47% 29.95 in 10.0 mi SSE 5.8 mph - N/A   Clear
10:58 PM 62.2 °F - 45.1 °F 54% 29.94 in 10.0 mi SSE 4.6 mph - N/A   Clear
11:58 PM 60.6 °F - 46.0 °F 59% 29.94 in 10.0 mi SSE 5.8 mph - N/A   Clear